RUK1QT EGPH-EIDW

Flight info

Callsign RUK1QT
Flight time 0h 47m
Altitude 22000
Route GOSAM P600 BLACA P620 NIMAT NIMAT4L
Aircraft B738/M-SDE3FGILRWY/SB1

Departure

Time 2026-05-06 19:05
Airport Edinburgh Airport (EGPH)

Arrival

Time 2026-05-06 19:53
Airport Dublin Airport (EIDW)
Time Latitude Longitude Altitude Speed Heading
2026-05-06 18:46 55.94612 -3.36630 115 ft 0 kts 89°
2026-05-06 18:57 55.94612 -3.36645 111 ft 2 kts 89°
2026-05-06 18:57 55.94612 -3.36674 114 ft 2 kts 90°
2026-05-06 18:57 55.94612 -3.36704 113 ft 2 kts 88°
2026-05-06 18:58 55.94605 -3.36729 111 ft 2 kts 18°
2026-05-06 18:58 55.94589 -3.36734 112 ft 2 kts 360°
2026-05-06 18:58 55.94584 -3.36733 112 ft 0 kts 358°
2026-05-06 19:00 55.94586 -3.36733 112 ft 1 kts 359°
2026-05-06 19:00 55.94611 -3.36734 112 ft 6 kts 359°
2026-05-06 19:00 55.94670 -3.36735 115 ft 10 kts 359°
2026-05-06 19:00 55.94717 -3.36735 115 ft 10 kts 359°
2026-05-06 19:01 55.94803 -3.36776 115 ft 10 kts 358°
2026-05-06 19:01 55.94869 -3.36781 115 ft 9 kts 351°
2026-05-06 19:01 55.94925 -3.36847 115 ft 11 kts 299°
2026-05-06 19:01 55.94889 -3.37004 112 ft 18 kts 238°
2026-05-06 19:02 55.94811 -3.37236 114 ft 24 kts 239°
2026-05-06 19:02 55.94723 -3.37492 112 ft 23 kts 238°
2026-05-06 19:02 55.94654 -3.37697 114 ft 16 kts 238°
2026-05-06 19:02 55.94603 -3.37849 112 ft 12 kts 239°
2026-05-06 19:03 55.94604 -3.37958 112 ft 10 kts 316°
2026-05-06 19:03 55.94660 -3.38022 112 ft 10 kts 329°
2026-05-06 19:03 55.94703 -3.38069 113 ft 5 kts 329°
2026-05-06 19:03 55.94731 -3.38040 114 ft 5 kts 57°
2026-05-06 19:04 55.94739 -3.38017 112 ft 0 kts 58°
2026-05-06 19:04 55.94741 -3.38012 114 ft 3 kts 58°
2026-05-06 19:04 55.94859 -3.37664 113 ft 72 kts 59°
2026-05-06 19:05 55.95253 -3.36500 111 ft 144 kts 59°
2026-05-06 19:05 55.95843 -3.34820 638 ft 159 kts 60°
2026-05-06 19:05 55.96517 -3.33291 1638 ft 160 kts 46°
2026-05-06 19:05 55.97411 -3.31888 2209 ft 185 kts 43°
2026-05-06 19:06 55.98479 -3.30278 2672 ft 211 kts 42°
2026-05-06 19:06 55.99698 -3.28574 3014 ft 238 kts 27°
2026-05-06 19:06 56.01393 -3.28076 3342 ft 262 kts 349°
2026-05-06 19:06 56.03010 -3.29568 4124 ft 267 kts 311°
2026-05-06 19:07 56.03834 -3.32461 5160 ft 262 kts 276°
2026-05-06 19:07 56.03789 -3.34595 5821 ft 261 kts 254°
2026-05-06 19:07 56.02844 -3.38575 7152 ft 262 kts 246°
2026-05-06 19:07 56.02214 -3.41672 7967 ft 270 kts 252°
2026-05-06 19:08 56.01671 -3.44905 8904 ft 272 kts 253°
2026-05-06 19:08 56.01171 -3.48154 9936 ft 271 kts 255°
2026-05-06 19:08 56.00856 -3.50330 10461 ft 276 kts 255°
2026-05-06 19:08 56.00353 -3.53797 10727 ft 302 kts 255°
2026-05-06 19:09 55.99811 -3.57554 11146 ft 319 kts 255°
2026-05-06 19:09 55.99254 -3.61438 11934 ft 324 kts 255°
2026-05-06 19:09 55.98692 -3.65353 12831 ft 326 kts 255°
2026-05-06 19:09 55.98127 -3.69289 13729 ft 329 kts 255°
2026-05-06 19:10 55.97556 -3.73262 14482 ft 332 kts 255°
2026-05-06 19:10 55.96977 -3.77280 15229 ft 336 kts 256°
2026-05-06 19:10 55.96391 -3.81333 15991 ft 339 kts 256°
2026-05-06 19:10 55.95800 -3.85423 16743 ft 342 kts 256°
2026-05-06 19:11 55.95205 -3.89524 17655 ft 340 kts 256°
2026-05-06 19:11 55.94614 -3.93581 18618 ft 336 kts 256°
2026-05-06 19:11 55.93970 -3.97562 19457 ft 334 kts 247°
2026-05-06 19:11 55.92578 -4.00867 20221 ft 339 kts 223°
2026-05-06 19:12 55.90653 -4.03298 21070 ft 339 kts 217°
2026-05-06 19:12 55.88682 -4.05611 21749 ft 341 kts 219°
2026-05-06 19:12 55.86761 -4.08073 22011 ft 340 kts 221°
2026-05-06 19:12 55.84906 -4.10693 22001 ft 339 kts 224°
2026-05-06 19:13 55.83116 -4.13402 22013 ft 337 kts 225°
2026-05-06 19:13 55.81357 -4.16143 22028 ft 336 kts 225°
2026-05-06 19:13 55.79604 -4.18888 22020 ft 336 kts 225°
2026-05-06 19:13 55.77807 -4.21567 22016 ft 338 kts 220°
2026-05-06 19:14 55.75872 -4.23963 22021 ft 340 kts 218°
2026-05-06 19:14 55.73911 -4.26304 22022 ft 340 kts 218°
2026-05-06 19:14 55.71960 -4.28667 22013 ft 340 kts 219°
2026-05-06 19:14 55.70014 -4.31050 22021 ft 340 kts 219°
2026-05-06 19:15 55.68075 -4.33442 22016 ft 340 kts 219°
2026-05-06 19:15 55.66134 -4.35841 22010 ft 340 kts 219°
2026-05-06 19:15 55.64191 -4.38242 22016 ft 340 kts 219°
2026-05-06 19:15 55.62248 -4.40640 22020 ft 341 kts 219°
2026-05-06 19:16 55.60302 -4.43038 22014 ft 341 kts 219°
2026-05-06 19:16 55.58381 -4.45403 22015 ft 341 kts 219°
2026-05-06 19:16 55.56436 -4.47795 22020 ft 341 kts 219°
2026-05-06 19:16 55.54489 -4.50185 22021 ft 341 kts 219°
2026-05-06 19:17 55.52539 -4.52576 22019 ft 341 kts 219°
2026-05-06 19:17 55.50588 -4.54964 22025 ft 341 kts 219°
2026-05-06 19:17 55.48639 -4.57349 22022 ft 341 kts 219°
2026-05-06 19:17 55.46685 -4.59736 22019 ft 342 kts 219°
2026-05-06 19:18 55.44734 -4.62117 22019 ft 342 kts 219°
2026-05-06 19:18 55.42778 -4.64501 22018 ft 342 kts 219°
2026-05-06 19:18 55.40825 -4.66878 22018 ft 342 kts 219°
2026-05-06 19:18 55.38870 -4.69256 22014 ft 342 kts 219°
2026-05-06 19:19 55.36915 -4.71631 22017 ft 341 kts 219°
2026-05-06 19:19 55.34960 -4.74003 22017 ft 342 kts 219°
2026-05-06 19:19 55.33003 -4.76372 22013 ft 342 kts 219°
2026-05-06 19:19 55.31024 -4.78689 22013 ft 343 kts 214°
2026-05-06 19:20 55.28900 -4.80637 22021 ft 345 kts 211°
2026-05-06 19:20 55.26740 -4.82500 22007 ft 346 kts 210°
2026-05-06 19:20 55.24580 -4.84360 22000 ft 346 kts 211°
2026-05-06 19:20 55.22425 -4.86236 22007 ft 346 kts 211°
2026-05-06 19:21 55.20273 -4.88119 22011 ft 346 kts 211°
2026-05-06 19:21 55.18118 -4.90008 22004 ft 347 kts 211°
2026-05-06 19:21 55.15961 -4.91898 22001 ft 347 kts 211°
2026-05-06 19:21 55.13807 -4.93782 21999 ft 347 kts 211°
2026-05-06 19:22 55.11648 -4.95667 21992 ft 346 kts 211°
2026-05-06 19:22 55.09497 -4.97543 22005 ft 346 kts 211°
2026-05-06 19:22 55.07343 -4.99418 22002 ft 346 kts 211°
2026-05-06 19:22 55.05190 -5.01291 22002 ft 346 kts 211°
2026-05-06 19:23 55.03033 -5.03165 22020 ft 346 kts 211°
2026-05-06 19:23 55.00901 -5.05016 21995 ft 347 kts 211°
2026-05-06 19:23 54.98740 -5.06890 21994 ft 347 kts 210°
2026-05-06 19:23 54.96581 -5.08760 22011 ft 347 kts 210°
2026-05-06 19:24 54.94420 -5.10632 22001 ft 347 kts 210°
2026-05-06 19:24 54.92258 -5.12500 21994 ft 347 kts 210°
2026-05-06 19:24 54.90093 -5.14367 22011 ft 347 kts 210°
2026-05-06 19:24 54.87864 -5.16043 21989 ft 351 kts 202°
2026-05-06 19:25 54.85486 -5.17088 22013 ft 353 kts 196°
2026-05-06 19:25 54.83075 -5.17962 21995 ft 354 kts 195°
2026-05-06 19:25 54.80658 -5.18808 21997 ft 354 kts 195°
2026-05-06 19:25 54.78242 -5.19658 22000 ft 354 kts 195°
2026-05-06 19:26 54.75828 -5.20519 21999 ft 354 kts 195°
2026-05-06 19:26 54.73413 -5.21391 22001 ft 355 kts 195°
2026-05-06 19:26 54.70998 -5.22270 21998 ft 355 kts 196°
2026-05-06 19:26 54.68583 -5.23152 21999 ft 355 kts 195°
2026-05-06 19:27 54.66166 -5.24036 21996 ft 355 kts 195°
2026-05-06 19:27 54.63749 -5.24919 21996 ft 355 kts 195°
2026-05-06 19:27 54.61333 -5.25802 22004 ft 355 kts 195°
2026-05-06 19:27 54.58913 -5.26684 21997 ft 355 kts 195°
2026-05-06 19:28 54.56493 -5.27567 21999 ft 356 kts 195°
2026-05-06 19:28 54.54072 -5.28448 21995 ft 356 kts 195°
2026-05-06 19:28 54.51649 -5.29328 21995 ft 356 kts 195°
2026-05-06 19:28 54.49241 -5.30292 21992 ft 354 kts 200°
2026-05-06 19:29 54.46972 -5.31860 21998 ft 350 kts 209°
2026-05-06 19:29 54.44789 -5.33705 21995 ft 350 kts 210°
2026-05-06 19:29 54.42613 -5.35589 21993 ft 350 kts 210°
2026-05-06 19:29 54.40436 -5.37472 21993 ft 350 kts 210°
2026-05-06 19:30 54.38254 -5.39344 21991 ft 351 kts 210°
2026-05-06 19:30 54.36068 -5.41206 21996 ft 351 kts 210°
2026-05-06 19:30 54.33879 -5.43060 21995 ft 351 kts 210°
2026-05-06 19:30 54.31688 -5.44906 21993 ft 349 kts 210°
2026-05-06 19:31 54.29570 -5.46685 21983 ft 339 kts 210°
2026-05-06 19:31 54.27469 -5.48446 21977 ft 334 kts 210°
2026-05-06 19:31 54.23291 -5.51952 21944 ft 336 kts 210°
2026-05-06 19:32 54.21188 -5.53713 21695 ft 335 kts 209°
2026-05-06 19:32 54.19075 -5.55480 21360 ft 334 kts 209°
2026-05-06 19:32 54.17002 -5.57209 21061 ft 330 kts 209°
2026-05-06 19:32 54.14974 -5.58898 20727 ft 328 kts 209°
2026-05-06 19:33 54.12934 -5.60597 20431 ft 325 kts 209°
2026-05-06 19:33 54.10911 -5.62278 20096 ft 322 kts 209°
2026-05-06 19:33 54.08900 -5.63948 19774 ft 320 kts 209°
2026-05-06 19:33 54.06902 -5.65606 19451 ft 318 kts 209°
2026-05-06 19:34 54.04916 -5.67254 19127 ft 317 kts 209°
2026-05-06 19:34 54.02941 -5.68892 18808 ft 315 kts 209°
2026-05-06 19:34 54.00977 -5.70517 18487 ft 314 kts 209°
2026-05-06 19:34 53.99019 -5.72134 18153 ft 312 kts 209°
2026-05-06 19:35 53.97062 -5.73710 17774 ft 311 kts 204°
2026-05-06 19:35 53.94939 -5.74444 17503 ft 312 kts 187°
2026-05-06 19:35 53.92777 -5.74608 17177 ft 311 kts 185°
2026-05-06 19:35 53.90624 -5.74724 16856 ft 309 kts 185°
2026-05-06 19:36 53.88485 -5.74840 16535 ft 306 kts 185°
2026-05-06 19:36 53.86363 -5.74965 16220 ft 304 kts 185°
2026-05-06 19:36 53.84253 -5.75099 15909 ft 302 kts 185°
2026-05-06 19:36 53.82155 -5.75239 15597 ft 301 kts 185°
2026-05-06 19:37 53.80069 -5.75382 15280 ft 299 kts 185°
2026-05-06 19:37 53.77994 -5.75527 14981 ft 298 kts 185°
2026-05-06 19:37 53.75930 -5.75672 14675 ft 296 kts 185°
2026-05-06 19:37 53.74569 -5.75768 14471 ft 295 kts 185°
2026-05-06 19:38 53.71833 -5.75961 14070 ft 293 kts 185°
2026-05-06 19:38 53.69798 -5.76104 13767 ft 292 kts 185°
2026-05-06 19:38 53.67772 -5.76268 13424 ft 290 kts 189°
2026-05-06 19:38 53.65902 -5.77319 13119 ft 281 kts 215°
2026-05-06 19:39 53.64511 -5.79537 12822 ft 275 kts 236°
2026-05-06 19:39 53.63710 -5.82414 12510 ft 271 kts 255°
2026-05-06 19:39 53.63270 -5.85490 12217 ft 269 kts 257°
2026-05-06 19:39 53.62873 -5.88565 11913 ft 268 kts 258°
2026-05-06 19:40 53.62480 -5.91631 11613 ft 267 kts 258°
2026-05-06 19:40 53.62084 -5.94682 11316 ft 266 kts 257°
2026-05-06 19:40 53.61685 -5.97718 11030 ft 265 kts 257°
2026-05-06 19:40 53.61284 -6.00740 10747 ft 264 kts 257°
2026-05-06 19:41 53.60881 -6.03750 10455 ft 263 kts 257°
2026-05-06 19:41 53.60479 -6.06746 10171 ft 262 kts 257°
2026-05-06 19:41 53.60074 -6.09740 9886 ft 262 kts 257°
2026-05-06 19:41 53.59670 -6.12722 9557 ft 261 kts 257°
2026-05-06 19:42 53.59266 -6.15697 9272 ft 260 kts 257°
2026-05-06 19:42 53.58869 -6.18620 8975 ft 259 kts 257°
2026-05-06 19:42 53.58468 -6.21568 8681 ft 258 kts 257°
2026-05-06 19:42 53.58068 -6.24496 8420 ft 256 kts 256°
2026-05-06 19:43 53.57679 -6.27348 8374 ft 245 kts 256°
2026-05-06 19:43 53.57301 -6.30106 8240 ft 238 kts 256°
2026-05-06 19:43 53.56933 -6.32783 8140 ft 231 kts 256°
2026-05-06 19:43 53.56576 -6.35372 8031 ft 223 kts 256°
2026-05-06 19:44 53.56240 -6.37876 7879 ft 219 kts 259°
2026-05-06 19:44 53.56029 -6.40466 7423 ft 228 kts 262°
2026-05-06 19:44 53.55856 -6.43146 7084 ft 232 kts 262°
2026-05-06 19:44 53.55683 -6.45837 6840 ft 231 kts 262°
2026-05-06 19:45 53.55504 -6.48518 6596 ft 230 kts 262°
2026-05-06 19:45 53.55322 -6.51165 6274 ft 227 kts 261°
2026-05-06 19:45 53.55135 -6.53806 5827 ft 229 kts 261°
2026-05-06 19:45 53.54944 -6.56451 5452 ft 227 kts 262°
2026-05-06 19:46 53.54751 -6.59106 5140 ft 229 kts 262°
2026-05-06 19:46 53.54557 -6.61757 4915 ft 227 kts 262°
2026-05-06 19:46 53.54258 -6.64330 4728 ft 224 kts 244°
2026-05-06 19:46 53.53276 -6.66306 4594 ft 223 kts 213°
2026-05-06 19:47 53.51832 -6.67249 4467 ft 227 kts 191°
2026-05-06 19:47 53.50265 -6.67567 4333 ft 224 kts 186°
2026-05-06 19:47 53.48748 -6.67781 4186 ft 213 kts 185°
2026-05-06 19:47 53.47326 -6.67474 4009 ft 205 kts 152°
2026-05-06 19:48 53.46442 -6.65735 3898 ft 195 kts 109°
2026-05-06 19:48 53.46094 -6.63528 3853 ft 198 kts 105°
2026-05-06 19:48 53.45782 -6.61289 3754 ft 196 kts 104°
2026-05-06 19:48 53.45524 -6.59056 3641 ft 194 kts 100°
2026-05-06 19:49 53.45352 -6.56832 3531 ft 191 kts 97°
2026-05-06 19:49 53.45218 -6.54659 3423 ft 187 kts 97°
2026-05-06 19:49 53.45090 -6.52462 3190 ft 191 kts 96°
2026-05-06 19:49 53.44966 -6.50222 2946 ft 195 kts 96°
2026-05-06 19:50 53.44841 -6.47951 2699 ft 196 kts 97°
2026-05-06 19:50 53.44719 -6.45673 2409 ft 197 kts 97°
2026-05-06 19:50 53.44586 -6.43395 2136 ft 196 kts 97°
2026-05-06 19:50 53.44457 -6.41142 1859 ft 191 kts 97°
2026-05-06 19:51 53.44333 -6.38998 1614 ft 179 kts 98°
2026-05-06 19:51 53.44219 -6.36986 1372 ft 166 kts 97°
2026-05-06 19:51 53.44117 -6.35160 1139 ft 152 kts 97°
2026-05-06 19:51 53.44016 -6.33412 911 ft 149 kts 98°
2026-05-06 19:52 53.43916 -6.31698 696 ft 146 kts 98°
2026-05-06 19:52 53.43827 -6.30034 499 ft 143 kts 97°
2026-05-06 19:52 53.43738 -6.28372 290 ft 143 kts 98°
2026-05-06 19:52 53.43645 -6.26777 214 ft 119 kts 95°
2026-05-06 19:53 53.43588 -6.25752 217 ft 57 kts 95°
2026-05-06 19:53 53.43554 -6.25341 211 ft 29 kts 108°
2026-05-06 19:53 53.43466 -6.25048 217 ft 27 kts 120°
2026-05-06 19:53 53.43405 -6.24871 213 ft 14 kts 120°
2026-05-06 19:54 53.43368 -6.24756 210 ft 11 kts 110°
2026-05-06 19:54 53.43356 -6.24635 213 ft 10 kts 97°
2026-05-06 19:54 53.43347 -6.24521 210 ft 10 kts 95°
2026-05-06 19:54 53.43326 -6.24415 214 ft 10 kts 144°
2026-05-06 19:55 53.43261 -6.24409 212 ft 9 kts 185°
2026-05-06 19:55 53.43200 -6.24434 213 ft 9 kts 221°
2026-05-06 19:55 53.43191 -6.24536 210 ft 9 kts 275°
2026-05-06 19:55 53.43196 -6.24639 210 ft 9 kts 270°
2026-05-06 19:56 53.43183 -6.24734 210 ft 8 kts 274°
2026-05-06 19:56 53.43188 -6.24831 214 ft 7 kts 275°
2026-05-06 19:56 53.43191 -6.24887 210 ft 5 kts 275°
2026-05-06 19:56 53.43190 -6.24938 210 ft 4 kts 239°
2026-05-06 19:57 53.43160 -6.24951 210 ft 4 kts 185°
2026-05-06 19:57 53.43140 -6.24955 210 ft 4 kts 185°
2026-05-06 19:57 53.43126 -6.24957 210 ft 2 kts 185°
2026-05-06 19:57 53.43116 -6.24958 213 ft 1 kts 185°
2026-05-06 19:58 53.43110 -6.24959 217 ft 1 kts 185°
2026-05-06 19:58 53.43108 -6.24960 217 ft 0 kts 185°